This is the latest recevied weather packets stored in our database for station/object DM0MR. If no packets are shown the sender has not sent any weather packets the latest 10 day(s).
| Time | Temp. | Humidity | Pressure | Rain* | Wind** | Luminosity | Snow |
|---|---|---|---|---|---|---|---|
| 1777736494 | 26.67° C | 25% | 1006.7 hPa | 0 mm | - | - | - |
| 1777735593 | 27.22° C | 23% | 1007 hPa | 0 mm | - | - | - |
| 1777734694 | 26.67° C | 24% | 1007.1 hPa | 0 mm | - | - | - |
| 1777733793 | 27.78° C | 21% | 1007.2 hPa | 0 mm | - | - | - |
| 1777732893 | 28.89° C | 26% | 1007.4 hPa | 0 mm | - | - | - |
| 1777731995 | 28.33° C | 26% | 1007.7 hPa | 0 mm | - | - | - |
| 1777731093 | 28.89° C | 25% | 1008 hPa | 0 mm | - | - | - |
| 1777728393 | 30° C | 24% | 1008.6 hPa | 0 mm | - | - | - |
| 1777727493 | 30° C | 23% | 1008.8 hPa | 0 mm | - | - | - |
| 1777725695 | 28.89° C | 27% | 1009.3 hPa | 0 mm | - | - | - |
| 1777724793 | 29.44° C | 26% | 1009.5 hPa | 0 mm | - | - | - |
| 1777723894 | 28.89° C | 27% | 1009.8 hPa | 0 mm | - | - | - |
| 1777722993 | 28.33° C | 27% | 1010.1 hPa | 0 mm | - | - | - |
| 1777721193 | 28.33° C | 28% | 1010.4 hPa | 0 mm | - | - | - |
| 1777720296 | 27.78° C | 28% | 1010.7 hPa | 0 mm | - | - | - |
| 1777719394 | 27.22° C | 26% | 1010.9 hPa | 0 mm | - | - | - |
| 1777718493 | 27.22° C | 27% | 1011.1 hPa | 0 mm | - | - | - |
| 1777717592 | 27.22° C | 27% | 1011.2 hPa | 0 mm | - | - | - |
| 1777716694 | 27.22° C | 28% | 1011.4 hPa | 0 mm | - | - | - |
| 1777715794 | 26.67° C | 28% | 1011.6 hPa | 0 mm | - | - | - |
| 1777714894 | 26.67° C | 31% | 1011.6 hPa | 0 mm | - | - | - |
| 1777713993 | 27.22° C | 31% | 1011.9 hPa | 0 mm | - | - | - |
| 1777713098 | 27.22° C | 32% | 1012.1 hPa | 0 mm | - | - | - |
| 1777712193 | 27.22° C | 32% | 1012.2 hPa | 0 mm | - | - | - |
| 1777710396 | 26.11° C | 34% | 1012.7 hPa | 0 mm | - | - | - |
* Rain latest hour (hover to see other rain measurements)
** Current wind speed in m/s (hover to see current wind gust speed)